OTA87 KRFD-TNCM

Flight info

Callsign OTA87
Flight time N/A
Altitude 37000
Route YOKUB DCT FANGU DCT AIR J162 MGW DCT GVE DCT RIC DCT ORF DCT OHPEA AR8 OXANA/M081F370 L452 LNHOM/N0469F370 L452 JORGG DCT MLIZA DCT PJM
Aircraft B737/M-SDE2E3FGHIRWXY/LB1

Departure

Time 2026-04-24 14:31
Airport Chicago Rockford International Airport (KRFD)

Arrival

Time N/A
Airport Princess Juliana International Airport (TNCM)
Time Latitude Longitude Altitude Speed Heading
2026-04-24 14:14 42.18929 -89.09456 712 ft 0 kts 37°
2026-04-24 14:26 42.18935 -89.09450 729 ft 7 kts 37°
2026-04-24 14:26 42.18978 -89.09356 733 ft 14 kts 92°
2026-04-24 14:26 42.19002 -89.09286 736 ft 13 kts 25°
2026-04-24 14:26 42.19061 -89.09274 736 ft 13 kts
2026-04-24 14:27 42.19280 -89.09247 739 ft 20 kts
2026-04-24 14:27 42.19326 -89.09241 739 ft 19 kts
2026-04-24 14:27 42.19546 -89.09223 737 ft 20 kts
2026-04-24 14:27 42.19680 -89.09231 735 ft 19 kts 338°
2026-04-24 14:28 42.19798 -89.09305 738 ft 18 kts 335°
2026-04-24 14:28 42.19912 -89.09375 739 ft 18 kts 335°
2026-04-24 14:28 42.20016 -89.09411 738 ft 11 kts 35°
2026-04-24 14:28 42.20053 -89.09322 737 ft 11 kts 65°
2026-04-24 14:29 42.20096 -89.09195 740 ft 19 kts 65°
2026-04-24 14:29 42.20163 -89.09001 741 ft 27 kts 65°
2026-04-24 14:29 42.20236 -89.08785 741 ft 19 kts 65°
2026-04-24 14:29 42.20201 -89.08679 740 ft 14 kts 154°
2026-04-24 14:30 42.20164 -89.08662 741 ft 5 kts 176°
2026-04-24 14:30 42.20149 -89.08684 741 ft 0 kts 244°
2026-04-24 14:30 42.20145 -89.08696 741 ft 8 kts 245°
2026-04-24 14:30 42.20007 -89.09105 739 ft 90 kts 245°
2026-04-24 14:31 42.19784 -89.09759 738 ft 139 kts 245°
2026-04-24 14:31 42.19286 -89.11190 1035 ft 181 kts 246°
2026-04-24 14:31 42.18734 -89.12792 1801 ft 198 kts 246°
2026-04-24 14:31 42.18049 -89.14535 2389 ft 226 kts 233°
2026-04-24 14:32 42.16723 -89.15796 3188 ft 249 kts 201°
2026-04-24 14:32 42.14932 -89.15863 4023 ft 270 kts 167°
2026-04-24 14:32 42.13246 -89.14672 4754 ft 279 kts 148°
2026-04-24 14:32 42.11558 -89.13370 5549 ft 283 kts 147°
2026-04-24 14:33 42.10300 -89.11323 6661 ft 288 kts 115°
2026-04-24 14:33 42.09443 -89.08887 7728 ft 289 kts 123°
2026-04-24 14:33 42.08458 -89.06507 8738 ft 294 kts 114°
2026-04-24 14:33 42.07825 -89.03858 9752 ft 299 kts 108°
2026-04-24 14:34 42.07265 -89.01123 10533 ft 310 kts 108°
2026-04-24 14:34 42.06686 -88.98241 10817 ft 338 kts 108°
2026-04-24 14:34 42.06044 -88.95062 11024 ft 365 kts 108°
2026-04-24 14:34 42.05349 -88.91647 11207 ft 391 kts 108°
2026-04-24 14:35 42.04607 -88.88033 11527 ft 408 kts 108°
2026-04-24 14:35 42.03840 -88.84320 12146 ft 415 kts 109°
2026-04-24 14:35 42.03062 -88.80566 12916 ft 418 kts 109°
2026-04-24 14:35 42.02269 -88.76770 13610 ft 422 kts 109°
2026-04-24 14:36 42.01468 -88.72954 14208 ft 426 kts 110°
2026-04-24 14:36 42.00708 -88.69352 14770 ft 430 kts 110°
2026-04-24 14:36 41.99886 -88.65467 15445 ft 433 kts 110°
2026-04-24 14:36 41.99056 -88.61556 16052 ft 437 kts 110°
2026-04-24 14:37 41.98216 -88.57606 16624 ft 441 kts 110°
2026-04-24 14:37 41.97367 -88.53625 17168 ft 444 kts 110°
2026-04-24 14:37 41.96511 -88.49614 17700 ft 448 kts 111°
2026-04-24 14:37 41.95650 -88.45591 18167 ft 451 kts 111°
2026-04-24 14:38 41.94788 -88.41569 18612 ft 455 kts 111°
2026-04-24 14:38 41.93910 -88.37478 19064 ft 458 kts 111°
2026-04-24 14:38 41.93024 -88.33354 19501 ft 461 kts 111°
2026-04-24 14:38 41.92130 -88.29206 19940 ft 464 kts 111°
2026-04-24 14:39 41.91230 -88.25037 20358 ft 467 kts 111°
2026-04-24 14:39 41.90322 -88.20839 20765 ft 470 kts 111°
2026-04-24 14:39 41.89417 -88.16667 21155 ft 473 kts 111°
2026-04-24 14:39 41.88484 -88.12368 21543 ft 476 kts 111°
2026-04-24 14:40 41.87566 -88.08150 21894 ft 479 kts 111°
2026-04-24 14:40 41.86624 -88.03830 22222 ft 481 kts 111°
2026-04-24 14:40 41.85682 -87.99515 22557 ft 484 kts 111°
2026-04-24 14:40 41.84729 -87.95163 22879 ft 487 kts 111°
2026-04-24 14:41 41.83770 -87.90793 23217 ft 490 kts 110°
2026-04-24 14:41 41.82805 -87.86399 23504 ft 492 kts 110°
2026-04-24 14:41 41.81832 -87.81985 23747 ft 494 kts 110°
2026-04-24 14:41 41.80887 -87.77701 24005 ft 496 kts 110°
2026-04-24 14:42 41.79904 -87.73255 24268 ft 498 kts 110°
2026-04-24 14:42 41.78915 -87.68792 24511 ft 500 kts 110°
2026-04-24 14:42 41.77923 -87.64321 24751 ft 502 kts 110°
2026-04-24 14:42 41.76921 -87.59820 24988 ft 503 kts 110°
2026-04-24 14:43 41.75932 -87.55384 25238 ft 505 kts 110°
2026-04-24 14:43 41.74923 -87.50865 25471 ft 507 kts 110°
2026-04-24 14:43 41.73911 -87.46348 25675 ft 508 kts 110°
2026-04-24 14:43 41.72892 -87.41804 25871 ft 509 kts 110°
2026-04-24 14:44 41.71868 -87.37247 26119 ft 509 kts 110°
2026-04-24 14:44 41.70846 -87.32708 26412 ft 508 kts 110°
2026-04-24 14:44 41.69823 -87.28174 26716 ft 507 kts 110°
2026-04-24 14:44 41.68801 -87.23656 27016 ft 507 kts 110°
2026-04-24 14:45 41.67779 -87.19147 27319 ft 506 kts 110°
2026-04-24 14:45 41.66770 -87.14704 27630 ft 506 kts 110°
2026-04-24 14:45 41.65747 -87.10211 27974 ft 505 kts 110°
2026-04-24 14:45 41.64723 -87.05721 28325 ft 504 kts 110°
2026-04-24 14:46 41.63698 -87.01237 28689 ft 503 kts 110°
2026-04-24 14:46 41.62675 -86.96768 29030 ft 503 kts 110°
2026-04-24 14:46 41.61650 -86.92302 29379 ft 503 kts 110°
2026-04-24 14:46 41.60622 -86.87830 29744 ft 503 kts 109°
2026-04-24 14:47 41.59593 -86.83365 30068 ft 503 kts 109°
2026-04-24 14:47 41.58562 -86.78900 30362 ft 503 kts 109°
2026-04-24 14:47 41.57529 -86.74435 30649 ft 503 kts 109°
2026-04-24 14:47 41.56492 -86.69961 30946 ft 503 kts 109°
2026-04-24 14:48 41.55457 -86.65502 31255 ft 502 kts 109°
2026-04-24 14:48 41.54420 -86.61048 31536 ft 502 kts 109°
2026-04-24 14:48 41.53381 -86.56591 31823 ft 502 kts 109°
2026-04-24 14:48 41.52343 -86.52145 32140 ft 501 kts 109°
2026-04-24 14:49 41.51305 -86.47710 32458 ft 500 kts 109°
2026-04-24 14:49 41.50266 -86.43282 32764 ft 500 kts 109°
2026-04-24 14:49 41.49229 -86.38867 33066 ft 499 kts 109°
2026-04-24 14:49 41.48191 -86.34459 33386 ft 497 kts 109°
2026-04-24 14:50 41.47154 -86.30063 33682 ft 496 kts 109°
2026-04-24 14:50 41.46117 -86.25677 33951 ft 496 kts 109°
2026-04-24 14:50 41.45091 -86.21345 34183 ft 495 kts 109°
2026-04-24 14:50 41.44041 -86.16920 34416 ft 494 kts 109°
2026-04-24 14:51 41.43017 -86.12612 34644 ft 494 kts 109°
2026-04-24 14:51 41.41978 -86.08248 34881 ft 493 kts 109°
2026-04-24 14:51 41.40939 -86.03892 35099 ft 493 kts 109°
2026-04-24 14:51 41.39897 -85.99536 35316 ft 493 kts 108°
2026-04-24 14:52 41.38856 -85.95188 35521 ft 492 kts 108°
2026-04-24 14:52 41.37815 -85.90850 35742 ft 492 kts 108°
2026-04-24 14:52 41.36772 -85.86513 35938 ft 492 kts 108°
2026-04-24 14:52 41.35727 -85.82177 36120 ft 492 kts 108°
2026-04-24 14:53 41.34681 -85.77843 36297 ft 492 kts 108°
2026-04-24 14:53 41.33633 -85.73508 36486 ft 491 kts 108°
2026-04-24 14:53 41.32585 -85.69180 36681 ft 491 kts 108°
2026-04-24 14:53 41.31537 -85.64865 36808 ft 492 kts 108°
2026-04-24 14:54 41.30480 -85.60518 36805 ft 494 kts 108°
2026-04-24 14:54 41.28366 -85.51846 36810 ft 491 kts 108°
2026-04-24 14:55 41.26614 -85.44683 36833 ft 489 kts 108°
2026-04-24 14:55 41.24144 -85.34626 36843 ft 489 kts 108°
2026-04-24 14:56 41.22039 -85.26089 36851 ft 489 kts 108°
2026-04-24 14:56 41.19917 -85.17512 36854 ft 489 kts 108°
2026-04-24 14:57 41.17783 -85.08919 36854 ft 490 kts 108°
2026-04-24 14:57 41.15640 -85.00320 36852 ft 491 kts 108°
2026-04-24 14:58 41.13486 -84.91713 36853 ft 492 kts 108°
2026-04-24 14:58 41.11320 -84.83083 36836 ft 493 kts 108°
2026-04-24 14:59 41.09144 -84.74449 36846 ft 493 kts 108°
2026-04-24 14:59 41.06980 -84.65890 36854 ft 493 kts 108°
2026-04-24 15:00 41.04779 -84.57221 36861 ft 493 kts 108°
2026-04-24 15:00 41.02602 -84.48671 36851 ft 493 kts 108°
2026-04-24 15:01 41.00403 -84.40068 36853 ft 493 kts 108°
2026-04-24 15:01 40.98558 -84.32878 36855 ft 493 kts 108°
2026-04-24 15:02 40.97454 -84.28581 36877 ft 493 kts 108°